Location: Ash Swamp
(41.5170°N, 74.6157°W)
Time: 17:14:07
(UTC+00:00)

Hubble Space Telescope - Pass Details

Date: 14 July 2020
Orbit: 536 x 540 km, 28.5° (Epoch: 05 August)

Event Time Altitude Azimuth Distance (km) Brightness Sun altitude
Rises 01:42:07 0° 241° (WSW) 2,669 4.6 -11.4°
Reaches altitude 10° 01:45:32 10° 211° (SSW) 1,779 3.3 -11.9°
Maximum altitude 01:47:18 12° 186° (S) 1,625 2.9 -12.1°
Enters shadow 01:48:06 12° 174° (S) 1,657 2.8 -12.2°
